Year,Month,Day,Hour,Minute,Value (Times are PST for temperature in C)
2009,06,30,07,12,10.50
2009,06,30,07,13,10.50
2009,06,30,07,14,10.60
2009,06,30,07,15,10.70
2009,06,30,07,16,10.70
2009,06,30,07,17,10.80
2009,06,30,07,18,10.80
2009,06,30,07,19,10.90
2009,06,30,07,20,11.00
2009,06,30,07,21,11.10
2009,06,30,07,22,11.10
2009,06,30,07,23,11.20
2009,06,30,07,24,11.30
2009,06,30,07,25,11.30
2009,06,30,07,26,11.40
2009,06,30,07,27,11.40
2009,06,30,07,28,11.50
2009,06,30,07,29,11.60
2009,06,30,07,30,11.60
2009,06,30,07,31,11.70
2009,06,30,07,32,11.80
2009,06,30,07,33,11.80
2009,06,30,07,34,11.90
2009,06,30,07,35,12.00
2009,06,30,07,36,12.00
2009,06,30,07,37,12.10
2009,06,30,07,38,12.20
2009,06,30,07,39,12.30
2009,06,30,07,40,12.40
2009,06,30,07,41,12.50
2009,06,30,07,42,12.60
2009,06,30,07,43,12.60
2009,06,30,07,44,12.70
2009,06,30,07,45,12.80
2009,06,30,07,46,12.90
2009,06,30,07,47,13.00
2009,06,30,07,48,13.10
2009,06,30,07,49,13.10
2009,06,30,07,50,13.20
2009,06,30,07,51,13.20
2009,06,30,07,52,13.30
2009,06,30,07,53,13.30
2009,06,30,07,54,13.30
2009,06,30,07,55,13.40
2009,06,30,07,56,13.40
2009,06,30,07,57,13.50
2009,06,30,07,58,13.50
2009,06,30,07,59,13.60
2009,06,30,08,00,13.60
2009,06,30,08,01,13.70
2009,06,30,08,02,13.70
2009,06,30,08,03,13.80
2009,06,30,08,04,13.80
2009,06,30,08,05,13.80
2009,06,30,08,06,13.90
2009,06,30,08,07,13.90
2009,06,30,08,08,14.00
2009,06,30,08,09,14.00
2009,06,30,08,10,14.10
2009,06,30,08,11,14.10
2009,06,30,08,12,14.20
2009,06,30,08,13,14.30
2009,06,30,08,14,14.40
2009,06,30,08,15,14.50
2009,06,30,08,16,14.70
2009,06,30,08,17,14.80
2009,06,30,08,18,15.00
2009,06,30,08,19,15.00
2009,06,30,08,20,15.00
2009,06,30,08,21,15.10
2009,06,30,08,22,15.10
2009,06,30,08,23,15.10
2009,06,30,08,24,15.20
2009,06,30,08,25,15.20
2009,06,30,08,26,15.20
2009,06,30,08,27,15.30
2009,06,30,08,28,15.30
2009,06,30,08,29,15.40
2009,06,30,08,30,15.40
2009,06,30,08,31,15.50
2009,06,30,08,32,15.60
2009,06,30,08,33,15.60
2009,06,30,08,34,15.70
2009,06,30,08,35,15.80
2009,06,30,08,36,15.80
2009,06,30,08,37,15.80
2009,06,30,08,38,15.80
2009,06,30,08,39,15.90
2009,06,30,08,40,15.90
2009,06,30,08,41,16.00
2009,06,30,08,42,16.00
2009,06,30,08,43,15.90
2009,06,30,08,44,15.90
2009,06,30,08,45,15.90
2009,06,30,08,46,15.90
2009,06,30,08,47,15.90
2009,06,30,08,48,15.90
2009,06,30,08,49,15.90
2009,06,30,08,50,15.90
2009,06,30,08,51,15.90
2009,06,30,08,52,15.80
2009,06,30,08,53,15.80
2009,06,30,08,54,15.80
2009,06,30,08,55,15.90
2009,06,30,08,56,15.90
2009,06,30,08,57,16.00
2009,06,30,08,58,16.10
2009,06,30,08,59,16.20
2009,06,30,09,00,16.30
2009,06,30,09,01,16.30
2009,06,30,09,02,16.30
2009,06,30,09,03,16.30
2009,06,30,09,04,16.30
2009,06,30,09,05,16.20
2009,06,30,09,06,16.20
2009,06,30,09,07,16.20
2009,06,30,09,08,16.20
2009,06,30,09,09,16.10
2009,06,30,09,10,16.10
2009,06,30,09,11,16.10
2009,06,30,09,12,16.10
2009,06,30,09,13,16.10
2009,06,30,09,14,16.20
2009,06,30,09,15,16.30
2009,06,30,09,16,16.30
2009,06,30,09,17,16.30
2009,06,30,09,18,16.30
2009,06,30,09,19,16.20
2009,06,30,09,20,16.20
2009,06,30,09,21,16.10
2009,06,30,09,22,16.10
2009,06,30,09,23,16.10
2009,06,30,09,24,16.10
2009,06,30,09,25,16.10
2009,06,30,09,26,16.10
2009,06,30,09,27,16.20
2009,06,30,09,28,16.30
2009,06,30,09,29,16.30
2009,06,30,09,30,16.30
2009,06,30,09,31,16.30
2009,06,30,09,32,16.40
2009,06,30,09,33,16.40
2009,06,30,09,34,16.40
2009,06,30,09,35,16.30
2009,06,30,09,36,16.40
2009,06,30,09,37,16.40
2009,06,30,09,38,16.40
2009,06,30,09,39,16.50
2009,06,30,09,40,16.50
2009,06,30,09,41,16.60
2009,06,30,09,42,16.60
2009,06,30,09,43,16.60
2009,06,30,09,44,16.50
2009,06,30,09,45,16.50
2009,06,30,09,46,16.60
2009,06,30,09,47,16.70
2009,06,30,09,48,16.70
2009,06,30,09,49,16.70
2009,06,30,09,50,16.50
2009,06,30,09,51,16.50
2009,06,30,09,52,16.40
2009,06,30,09,53,16.40
2009,06,30,09,54,16.40
2009,06,30,09,55,16.40
2009,06,30,09,56,16.40
2009,06,30,09,57,16.40
2009,06,30,09,58,16.30
2009,06,30,09,59,16.30
2009,06,30,10,00,16.30
2009,06,30,10,01,16.30
2009,06,30,10,02,16.30
2009,06,30,10,03,16.40
2009,06,30,10,04,16.30
2009,06,30,10,05,16.40
2009,06,30,10,06,16.40
2009,06,30,10,07,16.50
2009,06,30,10,08,16.60
2009,06,30,10,09,16.60
2009,06,30,10,10,16.70
2009,06,30,10,11,16.80
2009,06,30,10,12,16.80
2009,06,30,10,13,16.80
2009,06,30,10,14,16.80
2009,06,30,10,15,16.80
2009,06,30,10,16,16.70
2009,06,30,10,17,16.60
2009,06,30,10,18,16.60
2009,06,30,10,19,16.50
2009,06,30,10,20,16.40
2009,06,30,10,21,16.40
2009,06,30,10,22,16.40
2009,06,30,10,23,16.30
2009,06,30,10,24,16.40
2009,06,30,10,25,16.50
2009,06,30,10,26,16.50
2009,06,30,10,27,16.60
2009,06,30,10,28,16.60
2009,06,30,10,29,16.70
2009,06,30,10,30,16.70
2009,06,30,10,31,16.70
2009,06,30,10,32,16.80
2009,06,30,10,33,16.80
2009,06,30,10,34,16.80
2009,06,30,10,35,16.80
2009,06,30,10,36,16.90
2009,06,30,10,37,16.90
2009,06,30,10,38,16.90
2009,06,30,10,39,16.90
2009,06,30,10,40,16.80
2009,06,30,10,41,16.80
2009,06,30,10,42,16.90
2009,06,30,10,43,16.90
2009,06,30,10,44,16.90
2009,06,30,10,45,17.00
2009,06,30,10,46,17.00
2009,06,30,10,47,17.10
2009,06,30,10,48,17.10
2009,06,30,10,49,17.20
2009,06,30,10,50,17.20
2009,06,30,10,51,17.20
2009,06,30,10,52,17.20
2009,06,30,10,53,17.10
2009,06,30,10,54,17.10
2009,06,30,10,55,17.20
2009,06,30,10,56,17.20
2009,06,30,10,57,17.20
2009,06,30,10,58,17.20
2009,06,30,10,59,17.20
2009,06,30,11,00,17.20
2009,06,30,11,01,17.20
2009,06,30,11,02,17.30
2009,06,30,11,03,17.30
2009,06,30,11,04,17.40
2009,06,30,11,05,17.50
2009,06,30,11,06,17.60
2009,06,30,11,07,17.70
2009,06,30,11,08,17.80
2009,06,30,11,09,17.80
2009,06,30,11,10,17.90
2009,06,30,11,11,17.90
2009,06,30,11,12,18.00
2009,06,30,11,13,18.10
2009,06,30,11,14,18.20
2009,06,30,11,15,18.30
2009,06,30,11,16,18.40
2009,06,30,11,17,18.40
2009,06,30,11,18,18.40
2009,06,30,11,19,18.30
2009,06,30,11,20,18.30
2009,06,30,11,21,18.40
2009,06,30,11,22,18.60
2009,06,30,11,23,18.60
2009,06,30,11,24,18.70
2009,06,30,11,25,18.80
2009,06,30,11,26,18.80
2009,06,30,11,27,18.80
2009,06,30,11,28,18.80
2009,06,30,11,29,18.70
2009,06,30,11,30,18.70
2009,06,30,11,31,18.60
2009,06,30,11,32,18.40
2009,06,30,11,33,18.30
2009,06,30,11,34,18.30
2009,06,30,11,35,18.30
2009,06,30,11,36,18.20
2009,06,30,11,37,18.20
2009,06,30,11,38,18.20
2009,06,30,11,39,18.30
2009,06,30,11,40,18.30
2009,06,30,11,41,18.40
2009,06,30,11,42,18.50
2009,06,30,11,43,18.60
2009,06,30,11,44,18.60
2009,06,30,11,45,18.60
2009,06,30,11,46,18.60
2009,06,30,11,47,18.70
2009,06,30,11,48,18.70
2009,06,30,11,49,18.80
2009,06,30,11,50,18.80
2009,06,30,11,51,18.70
2009,06,30,11,52,18.70
2009,06,30,11,53,18.60
2009,06,30,11,54,18.60
2009,06,30,11,55,18.60
2009,06,30,11,56,18.70
2009,06,30,11,57,18.60
2009,06,30,11,58,18.60
2009,06,30,11,59,18.70
2009,06,30,12,00,18.80
2009,06,30,12,01,18.90
2009,06,30,12,02,18.90
2009,06,30,12,03,19.00
2009,06,30,12,04,19.00
2009,06,30,12,05,18.90
2009,06,30,12,06,18.90
2009,06,30,12,07,18.80
2009,06,30,12,08,18.90
2009,06,30,12,09,18.90
2009,06,30,12,10,19.10
2009,06,30,12,11,18.90
2009,06,30,12,12,18.80
2009,06,30,12,13,18.80
2009,06,30,12,14,18.80
2009,06,30,12,15,18.70
2009,06,30,12,16,18.60
2009,06,30,12,17,18.50
2009,06,30,12,18,18.40
2009,06,30,12,19,18.50
2009,06,30,12,20,18.50
2009,06,30,12,21,18.70
2009,06,30,12,22,18.90
2009,06,30,12,23,19.10
2009,06,30,12,24,19.10
2009,06,30,12,25,19.10
2009,06,30,12,26,19.10
2009,06,30,12,27,19.20
2009,06,30,12,28,19.20
2009,06,30,12,29,19.30
2009,06,30,12,30,19.10
2009,06,30,12,31,19.00
2009,06,30,12,32,19.00
2009,06,30,12,33,18.90
2009,06,30,12,34,18.90
2009,06,30,12,35,19.00
2009,06,30,12,36,19.10
2009,06,30,12,37,19.20
2009,06,30,12,38,19.30
2009,06,30,12,39,19.30
2009,06,30,12,40,19.20
2009,06,30,12,41,19.20
2009,06,30,12,42,19.20
2009,06,30,12,43,19.20
2009,06,30,12,44,19.10
2009,06,30,12,45,19.00
2009,06,30,12,46,18.90
2009,06,30,12,47,18.90
2009,06,30,12,48,18.90
2009,06,30,12,49,19.00
2009,06,30,12,50,19.10
2009,06,30,12,51,19.00
2009,06,30,12,52,19.00
2009,06,30,12,53,19.10
2009,06,30,12,54,19.10
2009,06,30,12,55,19.10
2009,06,30,12,56,19.10
2009,06,30,12,57,19.30
2009,06,30,12,58,19.60
2009,06,30,12,59,19.70
2009,06,30,13,00,19.80
2009,06,30,13,01,19.90
2009,06,30,13,02,20.10
2009,06,30,13,03,20.00
2009,06,30,13,04,19.80
2009,06,30,13,05,19.80
2009,06,30,13,06,19.80
2009,06,30,13,07,19.80
2009,06,30,13,08,19.80
2009,06,30,13,09,19.70
2009,06,30,13,10,19.70
2009,06,30,13,11,19.70
2009,06,30,13,12,19.50
2009,06,30,13,13,19.30
2009,06,30,13,14,19.20
2009,06,30,13,15,19.20
2009,06,30,13,16,19.20
2009,06,30,13,17,19.20
2009,06,30,13,18,19.10
2009,06,30,13,19,19.10
2009,06,30,13,20,19.10
2009,06,30,13,21,19.10
2009,06,30,13,22,19.10
2009,06,30,13,23,19.20
2009,06,30,13,24,19.30
2009,06,30,13,25,19.30
2009,06,30,13,26,19.20
2009,06,30,13,27,19.20
2009,06,30,13,28,19.20
2009,06,30,13,29,19.10
2009,06,30,13,30,19.10
2009,06,30,13,31,19.10
2009,06,30,13,32,19.20
2009,06,30,13,33,19.30
2009,06,30,13,34,19.30
2009,06,30,13,35,19.40
2009,06,30,13,36,19.60
2009,06,30,13,37,19.70
2009,06,30,13,38,19.70
2009,06,30,13,39,19.70
2009,06,30,13,40,19.70
2009,06,30,13,41,19.70
2009,06,30,13,42,19.70
2009,06,30,13,43,19.70
2009,06,30,13,44,19.80
2009,06,30,13,45,19.80
2009,06,30,13,46,19.90
2009,06,30,13,47,19.80
2009,06,30,13,48,19.80
2009,06,30,13,49,19.90
2009,06,30,13,50,19.90
2009,06,30,13,51,20.00
2009,06,30,13,52,20.00
2009,06,30,13,53,20.10
2009,06,30,13,54,20.20
2009,06,30,13,55,20.10
2009,06,30,13,56,20.10
2009,06,30,13,57,20.10
2009,06,30,13,58,20.10
2009,06,30,13,59,20.00
2009,06,30,14,00,20.00
2009,06,30,14,01,20.10
2009,06,30,14,02,20.30
2009,06,30,14,03,20.50
2009,06,30,14,04,20.50
2009,06,30,14,05,20.60
2009,06,30,14,06,20.70
2009,06,30,14,07,20.80
2009,06,30,14,08,20.80
2009,06,30,14,09,20.50
2009,06,30,14,10,20.50
2009,06,30,14,11,20.40
2009,06,30,14,12,20.30
2009,06,30,14,13,20.10
2009,06,30,14,14,20.00
2009,06,30,14,15,20.00
2009,06,30,14,16,20.00
2009,06,30,14,17,20.20
2009,06,30,14,18,20.30
2009,06,30,14,19,20.40
2009,06,30,14,20,20.50
2009,06,30,14,21,20.60
2009,06,30,14,22,20.80
2009,06,30,14,23,20.90
2009,06,30,14,24,20.90
2009,06,30,14,25,20.90
2009,06,30,14,26,20.90
2009,06,30,14,27,21.10
2009,06,30,14,28,21.10
2009,06,30,14,29,21.20
2009,06,30,14,30,21.10
2009,06,30,14,31,21.00
2009,06,30,14,32,21.10
2009,06,30,14,33,21.00
2009,06,30,14,34,20.90
2009,06,30,14,35,20.80
2009,06,30,14,36,20.80
2009,06,30,14,37,20.80
2009,06,30,14,38,20.80
2009,06,30,14,39,20.70
2009,06,30,14,40,20.60
2009,06,30,14,41,20.60
2009,06,30,14,42,20.60
2009,06,30,14,43,20.70
2009,06,30,14,44,20.70
2009,06,30,14,45,20.80
2009,06,30,14,46,20.80
2009,06,30,14,47,20.90
2009,06,30,14,48,21.00
2009,06,30,14,49,20.90
2009,06,30,14,50,20.90
2009,06,30,14,51,20.90
2009,06,30,14,52,20.90
2009,06,30,14,53,20.80
2009,06,30,14,54,20.80
2009,06,30,14,55,20.80
2009,06,30,14,56,20.80
2009,06,30,14,57,20.80
2009,06,30,14,58,20.80
2009,06,30,14,59,20.70
2009,06,30,15,00,20.60
2009,06,30,15,01,20.60
2009,06,30,15,02,20.60
2009,06,30,15,03,20.50
2009,06,30,15,04,20.50
2009,06,30,15,05,20.50
2009,06,30,15,06,20.30
2009,06,30,15,07,20.30
2009,06,30,15,08,20.30
2009,06,30,15,09,20.40
2009,06,30,15,10,20.50
2009,06,30,15,11,20.50
2009,06,30,15,12,20.60
2009,06,30,15,13,20.60
2009,06,30,15,14,20.70
2009,06,30,15,15,20.70
2009,06,30,15,16,20.80
2009,06,30,15,17,20.80
2009,06,30,15,18,20.80
2009,06,30,15,19,20.60
2009,06,30,15,20,20.60
2009,06,30,15,21,20.50
2009,06,30,15,22,20.40
2009,06,30,15,23,20.40
2009,06,30,15,24,20.50
2009,06,30,15,25,20.70
2009,06,30,15,26,20.80
2009,06,30,15,27,20.80
2009,06,30,15,28,21.00
2009,06,30,15,29,21.10
2009,06,30,15,30,21.10
2009,06,30,15,31,21.10
2009,06,30,15,32,20.90
2009,06,30,15,33,20.80
2009,06,30,15,34,20.80
2009,06,30,15,35,20.80
2009,06,30,15,36,20.80
2009,06,30,15,37,20.80
2009,06,30,15,38,21.00
2009,06,30,15,39,21.00
2009,06,30,15,40,20.90
2009,06,30,15,41,21.00
2009,06,30,15,42,21.10
2009,06,30,15,43,21.00
2009,06,30,15,44,20.80
2009,06,30,15,45,20.60
2009,06,30,15,46,20.60
2009,06,30,15,47,20.60
2009,06,30,15,48,20.60
2009,06,30,15,49,20.60
2009,06,30,15,50,20.60
2009,06,30,15,51,20.60
2009,06,30,15,52,20.70
2009,06,30,15,53,20.70
2009,06,30,15,54,20.80
2009,06,30,15,55,20.90
2009,06,30,15,56,20.90
2009,06,30,15,57,20.80
2009,06,30,15,58,20.70
2009,06,30,15,59,20.70
2009,06,30,16,00,20.60
2009,06,30,16,01,20.40
2009,06,30,16,02,20.40
2009,06,30,16,03,20.30
2009,06,30,16,04,20.30
2009,06,30,16,05,20.30
2009,06,30,16,06,20.30
2009,06,30,16,07,20.40
2009,06,30,16,08,20.40
2009,06,30,16,09,20.60
2009,06,30,16,10,20.70
2009,06,30,16,11,20.90
2009,06,30,16,12,21.00
2009,06,30,16,13,21.00
2009,06,30,16,14,20.90
2009,06,30,16,15,20.90
2009,06,30,16,16,21.00
2009,06,30,16,17,21.00
2009,06,30,16,18,21.10
2009,06,30,16,19,21.10
2009,06,30,16,20,21.20
2009,06,30,16,21,21.30
2009,06,30,16,22,21.40
2009,06,30,16,23,21.40
2009,06,30,16,24,21.40
2009,06,30,16,25,21.40
2009,06,30,16,26,21.30
2009,06,30,16,27,21.20
2009,06,30,16,28,21.00
2009,06,30,16,29,20.90
2009,06,30,16,30,20.90
2009,06,30,16,31,21.00
2009,06,30,16,32,21.00
2009,06,30,16,33,20.90
2009,06,30,16,34,20.90
2009,06,30,16,35,21.00
2009,06,30,16,36,21.00
2009,06,30,16,37,21.10
2009,06,30,16,38,21.10
2009,06,30,16,39,21.10
2009,06,30,16,40,21.10
2009,06,30,16,41,21.10
2009,06,30,16,42,21.10
2009,06,30,16,43,21.20
2009,06,30,16,44,21.20
2009,06,30,16,45,21.20
2009,06,30,16,46,21.30
2009,06,30,16,47,21.30
2009,06,30,16,48,21.30
2009,06,30,16,49,21.20
2009,06,30,16,50,21.20
2009,06,30,16,51,21.00
2009,06,30,16,52,20.90
2009,06,30,16,53,20.80
2009,06,30,16,54,20.60
2009,06,30,16,55,20.50
2009,06,30,16,56,20.40
2009,06,30,16,57,20.40
2009,06,30,16,58,20.30
2009,06,30,16,59,20.40
2009,06,30,17,00,20.40
2009,06,30,17,01,20.40
2009,06,30,17,02,20.40
2009,06,30,17,03,20.60
2009,06,30,17,04,20.60
2009,06,30,17,05,20.60
2009,06,30,17,06,20.70
2009,06,30,17,07,20.70
2009,06,30,17,08,20.70
2009,06,30,17,09,20.60
2009,06,30,17,10,20.60
2009,06,30,17,11,20.70
2009,06,30,17,12,20.90
2009,06,30,17,13,20.90
2009,06,30,17,14,20.90
2009,06,30,17,15,20.90
2009,06,30,17,16,20.80
2009,06,30,17,17,20.70
2009,06,30,17,18,20.60
2009,06,30,17,19,20.50
2009,06,30,17,20,20.40
2009,06,30,17,21,20.40
2009,06,30,17,22,20.40
2009,06,30,17,23,20.40
2009,06,30,17,24,20.50
2009,06,30,17,25,20.60
2009,06,30,17,26,20.70
2009,06,30,17,27,20.70
2009,06,30,17,28,20.80
2009,06,30,17,29,20.90
2009,06,30,17,30,20.90
2009,06,30,17,31,21.00
2009,06,30,17,32,20.90
2009,06,30,17,33,21.00
2009,06,30,17,34,20.90
2009,06,30,17,35,20.80
2009,06,30,17,36,20.70
2009,06,30,17,37,20.60
2009,06,30,17,38,20.60
2009,06,30,17,39,20.60
2009,06,30,17,40,20.60
2009,06,30,17,41,20.50
2009,06,30,17,42,20.40
2009,06,30,17,43,20.40
2009,06,30,17,44,20.40
2009,06,30,17,45,20.50
2009,06,30,17,46,20.60
2009,06,30,17,47,20.60
2009,06,30,17,48,20.70
2009,06,30,17,49,20.80
2009,06,30,17,50,20.80
2009,06,30,17,51,20.90
2009,06,30,17,52,21.00
2009,06,30,17,53,21.10
2009,06,30,17,54,21.00
2009,06,30,17,55,20.80
2009,06,30,17,56,20.80
2009,06,30,17,57,20.80
2009,06,30,17,58,20.60
2009,06,30,17,59,20.50
2009,06,30,18,00,20.30
2009,06,30,18,01,20.20
2009,06,30,18,02,20.10
2009,06,30,18,03,20.20
2009,06,30,18,04,20.20
2009,06,30,18,05,20.30
2009,06,30,18,06,20.30
2009,06,30,18,07,20.40
2009,06,30,18,08,20.50
2009,06,30,18,09,20.60
2009,06,30,18,10,20.60
2009,06,30,18,11,20.60
2009,06,30,18,12,20.60
2009,06,30,18,13,20.60
2009,06,30,18,14,20.60
2009,06,30,18,15,20.50
2009,06,30,18,16,20.40
2009,06,30,18,17,20.30
2009,06,30,18,18,20.20
2009,06,30,18,19,20.20
2009,06,30,18,20,20.20
2009,06,30,18,21,20.20
2009,06,30,18,22,20.10
2009,06,30,18,23,20.10
2009,06,30,18,24,20.10
2009,06,30,18,25,20.20
2009,06,30,18,26,20.20
2009,06,30,18,27,20.20
2009,06,30,18,28,20.20
2009,06,30,18,29,20.10
2009,06,30,18,30,20.10
2009,06,30,18,31,20.10
2009,06,30,18,32,20.10
2009,06,30,18,33,20.10
2009,06,30,18,34,20.10
2009,06,30,18,35,20.10
2009,06,30,18,36,20.10
2009,06,30,18,37,20.10
2009,06,30,18,38,20.10
2009,06,30,18,39,20.10
2009,06,30,18,40,20.10
2009,06,30,18,41,20.10
2009,06,30,18,42,20.20
2009,06,30,18,43,20.20
2009,06,30,18,44,20.20
2009,06,30,18,45,20.20
2009,06,30,18,46,20.10
2009,06,30,18,47,20.10
2009,06,30,18,48,20.10
2009,06,30,18,49,20.10
2009,06,30,18,50,20.10
2009,06,30,18,51,20.20
2009,06,30,18,52,20.20
2009,06,30,18,53,20.20
2009,06,30,18,54,20.30
2009,06,30,18,55,20.30
2009,06,30,18,56,20.20
2009,06,30,18,57,20.20
2009,06,30,18,58,20.30
2009,06,30,18,59,20.30
2009,06,30,19,00,20.30
2009,06,30,19,01,20.30
2009,06,30,19,02,20.30
2009,06,30,19,03,20.20
2009,06,30,19,04,20.20
2009,06,30,19,05,20.20
2009,06,30,19,06,20.20
2009,06,30,19,07,20.20
2009,06,30,19,08,20.10
2009,06,30,19,09,20.10
2009,06,30,19,10,20.10
2009,06,30,19,11,20.00
2009,06,30,19,12,20.00
2009,06,30,19,13,20.00
2009,06,30,19,14,20.00
2009,06,30,19,15,20.10
2009,06,30,19,16,20.00
2009,06,30,19,17,20.00
2009,06,30,19,18,20.00
2009,06,30,19,19,20.00
2009,06,30,19,20,20.10
2009,06,30,19,21,20.10
2009,06,30,19,22,20.10
2009,06,30,19,23,20.00
2009,06,30,19,24,20.00
2009,06,30,19,25,19.90
2009,06,30,19,26,19.80
2009,06,30,19,27,19.80
2009,06,30,19,28,19.80
2009,06,30,19,29,19.80
2009,06,30,19,30,19.70
2009,06,30,19,31,19.70
2009,06,30,19,32,19.70
2009,06,30,19,33,19.60
2009,06,30,19,34,19.60
2009,06,30,19,35,19.60
2009,06,30,19,36,19.60
2009,06,30,19,37,19.70
2009,06,30,19,38,19.80
2009,06,30,19,39,19.80
2009,06,30,19,40,19.90
2009,06,30,19,41,19.80
2009,06,30,19,42,19.80
2009,06,30,19,43,19.80
2009,06,30,19,44,19.80
2009,06,30,19,45,19.80
2009,06,30,19,46,19.80
2009,06,30,19,47,19.70
2009,06,30,19,48,19.70
2009,06,30,19,49,19.70
2009,06,30,19,50,19.70
2009,06,30,19,51,19.70
2009,06,30,19,52,19.70
2009,06,30,19,53,19.70
2009,06,30,19,54,19.70
2009,06,30,19,55,19.70
2009,06,30,19,56,19.70
2009,06,30,19,57,19.70
